Wetbulb
75.09 74.69 75.88 75.87 74.04 74.04 75.29 73.02 73.21 75.04 73.27 74.33 74.49 73.98 73.15 74.15 73.22 74.01 74.40 76.28 77.35 77.62 76.64 77.03 75.86 77.12 76.82 77.23 77.02 76.92 77.30 76.88 77.18 76.42 75.26 74.96 75.16 75.73 75.30 74.53 74.46 74.45 74.58
77.59 74.81 74.11 73.70 75.16 73.69 75.24 74.49 73.74 74.23 72.86 72.57 72.02 73.12 72.36 71.66 72.53 72.58 73.55 73.86 76.18 76.61 77.36 76.75 77.26 77.16 77.00 76.88 76.99 76.74 77.63 77.48 77.34 76.80 76.20 75.78 75.51 75.50 74.54 74.44 74.48 74.46 74.35
78.82 78.85 77.19 73.31 75.48 75.93 74.34 75.22 74.54 72.33 70.70 69.80 70.21 70.47 71.20 71.14 72.40 71.00 73.19 72.90 74.44 76.20 77.22 77.36 77.42 77.54 77.27 76.97 76.67 77.07 77.61 77.70 77.52 77.12 76.20 75.92 75.49 75.21 74.59 74.56 74.42 74.23 74.08
79.69 78.97 77.98 77.45 77.49 74.60 74.10 74.66 71.91 71.42 70.76 69.07 67.82 69.47 69.39 70.78 72.46 72.39 72.84 73.63 73.91 74.16 75.94 77.15 76.97 77.48 77.19 77.05 76.84 76.91 77.12 77.56 77.48 77.39 76.56 76.00 75.21 75.06 74.94 74.79 74.36 74.14 74.09
77.63 77.69 77.66 77.36 78.69 77.15 75.34 73.42 71.94 70.46 69.09 69.01 70.08 69.06 69.24 70.25 70.60 72.15 71.81 72.24 74.04 74.05 74.14 75.39 76.36 77.01 76.72 77.12 77.14 77.49 77.24 77.29 77.39 77.32 76.92 76.21 75.65 75.45 75.05 74.78 74.30 74.10 73.97
77.55 76.60 77.01 76.58 75.08 76.26 75.49 73.79 72.35 71.59 69.10 68.02 69.86 69.55 69.58 69.46 69.99 70.18 70.78 72.03 71.88 73.05 73.45 73.06 74.43 75.57 77.37 77.46 77.69 77.66 77.46 77.23 77.40 77.12 77.10 76.39 75.84 75.61 75.29 75.04 74.64 74.28 74.06
78.97 78.90 76.59 75.21 77.17 73.22 73.24 73.10 72.06 72.23 72.00 70.68 71.22 69.87 70.50 70.96 70.71 72.39 71.54 71.00 71.32 72.48 72.04 72.43 72.95 73.70 75.59 77.43 77.45 77.43 77.45 77.18 77.28 77.02 76.74 76.82 76.32 75.71 75.41 75.06 74.94 74.61 74.09
79.19 78.32 77.57 76.57 77.06 76.08 75.91 74.80 73.44 72.51 72.98 72.96 69.24 69.62 66.32 69.17 70.84 72.01 71.70 71.60 71.11 72.31 71.10 72.10 71.86 69.82 71.33 74.39 75.76 77.16 77.49 77.50 77.42 76.97 77.17 76.52 76.52 76.06 75.58 75.35 75.15 74.91 74.56
78.01 78.22 78.42 77.22 76.31 76.49 75.01 74.54 73.90 72.96 72.59 73.11 72.82 70.38 66.58 64.65 68.09 70.67 71.14 71.14 70.96 70.79 69.80 70.57 72.64 71.86 71.37 73.75 74.94 76.23 76.72 76.29 77.57 77.48 77.52 76.82 76.59 76.41 76.03 75.60 75.27 74.92 74.90
77.96 78.27 78.96 78.43 77.75 78.21 76.46 75.16 75.14 74.32 73.77 72.60 72.72 72.72 72.99 72.05 66.72 66.26 71.36 70.73 70.88 70.57 69.84 69.48 71.17 72.28 73.48 73.44 73.39 74.41 75.53 75.31 76.44 77.27 77.67 77.50 76.84 76.74 76.58 76.28 75.47 75.06 75.04
77.57 78.05 78.83 78.76 77.94 77.07 77.33 76.46 75.64 73.93 73.43 75.12 73.29 73.65 72.34 71.95 71.53 69.23 67.82 69.17 70.89 71.02 70.39 70.29 70.30 72.07 73.18 73.02 72.65 72.50 74.83 74.48 75.36 75.96 76.89 77.29 77.35 76.44 76.08 76.22 76.21 75.67 75.45
77.28 77.73 78.13 78.31 78.43 78.07 77.70 77.99 77.01 77.02 76.07 74.93 73.56 73.86 72.24 70.73 69.79 69.43 68.42 68.16 68.54 69.96 70.60 70.83 70.38 71.39 72.18 72.72 74.85 74.12 74.19 74.17 74.11 74.64 75.43 76.19 76.87 77.02 76.27 75.83 75.70 75.71 75.39
75.62 76.73 77.65 78.44 77.84 78.34 77.96 78.41 77.22 76.57 76.11 74.92 72.78 73.34 74.33 72.84 72.68 70.93 70.44 66.94 68.90 69.78 70.05 71.65 70.94 71.28 72.43 72.47 73.13 74.36 73.76 73.21 73.09 72.77 73.67 74.54 75.50 76.13 76.47 76.44 76.40 75.96 75.91
76.35 77.79 77.45 78.23 79.04 79.07 78.94 78.54 77.00 77.21 76.59 75.91 75.48 74.96 74.36 74.39 74.22 73.00 71.48 70.36 68.65 68.31 70.71 69.49 71.84 71.70 71.87 72.93 73.17 74.23 73.34 72.35 72.07 71.51 71.92 72.99 73.78 74.57 75.03 75.53 75.39 75.59 75.71
77.55 81.08 78.11 78.58 79.23 79.48 79.97 79.59 77.72 77.21 77.75 77.24 76.68 76.16 74.81 73.50 74.03 74.43 72.79 72.19 68.83 66.83 67.19 69.37 70.67 72.31 72.15 72.76 73.59 73.44 73.72 72.22 71.55 71.01 70.75 71.22 71.90 72.93 73.70 74.03 74.29 74.05 74.44
80.15 81.33 79.67 78.71 78.73 79.42 79.65 79.09 77.85 77.79 77.60 77.47 75.69 75.82 75.24 73.22 72.52 75.32 75.05 72.93 72.35 70.07 68.07 70.78 71.07 72.28 71.74 72.34 74.26 73.87 74.14 73.17 71.33 70.85 70.34 70.14 70.90 71.82 72.30 72.62 72.96 72.93 73.10
80.54 80.60 80.39 80.45 80.05 79.68 79.47 78.90 78.23 77.58 77.22 76.69 76.12 75.85 74.79 74.45 74.05 75.35 73.40 72.75 72.17 71.73 69.44 71.04 72.12 73.43 73.35 71.40 72.15 73.71 73.80 74.16 73.29 69.80 69.74 69.36 69.26 70.17 70.81 71.19 71.36 71.74 71.91
79.55 80.48 80.78 79.63 79.90 79.47 79.42 78.57 76.96 77.12 76.42 75.74 75.74 75.66 75.02 75.26 74.96 74.68 74.76 73.03 72.60 72.74 71.65 69.84 72.47 72.41 72.61 72.91 72.56 72.54 73.50 74.46 73.69 72.52 68.96 68.52 68.15 68.31 68.58 68.93 68.92 68.93 68.96
79.67 79.46 79.73 79.88 79.19 79.24 79.25 79.24 78.54 77.77 76.78 76.51 75.91 75.01 75.16 75.33 74.93 74.66 74.35 73.58 73.07 73.53 73.45 72.09 71.34 73.56 73.57 73.44 72.44 72.84 73.06 73.33 74.07 73.34 68.63 67.79 67.71 67.17 66.91 66.42 66.16 65.52 64.79
79.84 79.53 79.67 79.36 79.35 79.56 79.04 78.79 78.24 77.68 77.24 76.62 75.59 75.94 76.19 75.41 74.76 75.68 75.18 74.76 75.29 74.21 73.87 72.49 71.83 70.79 72.20 73.17 72.90 72.02 71.87 72.65 72.55 74.81 73.19 71.06 68.99 68.12 67.13 65.56 65.47 65.27 63.05
79.67 79.98 79.72 79.95 79.87 78.94 78.16 78.80 78.59 77.96 77.10 75.48 76.46 76.64 76.90 75.76 74.19 74.23 74.76 75.26 74.60 73.76 72.47 72.15 71.24 70.91 72.49 71.62 71.07 72.20 71.65 72.25 72.52 72.82 71.97 72.66 71.36 70.02 69.55 67.17 67.81 67.31 64.81
81.13 79.81 79.42 79.27 79.38 78.06 73.12 72.82 76.90 77.73 77.35 76.49 75.79 75.99 76.63 74.33 73.33 71.75 71.22 70.80 72.20 74.63 73.87 72.06 70.55 69.04 71.82 71.89 72.05 72.01 71.36 70.16 68.79 74.91 72.34 71.88 73.13 71.22 71.39 71.22 68.69 66.95 64.98
80.83 80.48 79.51 79.85 79.30 79.04 69.51 70.17 72.87 77.37 77.21 76.67 76.66 75.76 75.61 75.02 73.91 74.81 70.45 69.86 69.97 69.07 69.65 72.54 70.27 69.66 70.61 72.96 73.86 72.60 71.92 71.02 70.52 72.46 72.67 70.77 73.21 72.21 73.47 73.39 68.69 65.65 64.75
80.48 80.51 79.91 79.96 79.82 79.12 68.22 68.63 71.38 77.16 77.23 77.22 76.16 75.27 75.25 75.82 76.22 75.25 75.73 73.61 73.79 74.06 71.84 70.91 70.35 71.57 72.73 74.53 74.36 73.85 73.11 72.87 73.19 73.27 72.99 68.70 71.84 70.91 72.25 72.88 68.04 66.98 64.35
80.50 80.46 80.08 79.81 79.82 79.34 66.43 67.19 70.84 76.16 75.86 76.18 76.71 77.08 76.33 75.67 72.13 68.50 74.95 74.34 74.91 74.93 70.93 67.86 70.47 70.57 68.74 67.13 69.07 71.24 69.29 69.70 68.24 69.82 73.25 70.95 70.73 70.50 71.22 71.54 72.15 66.77 64.64
80.24 80.04 79.36 80.03 75.63 79.84 64.17 64.62 69.87 75.77 74.61 74.76 76.64 76.96 69.39 73.02 67.02 65.09 72.70 73.88 73.01 73.44 73.24 73.79 72.47 71.16 67.72 68.72 65.58 70.47 70.18 69.67 69.77 68.76 71.70 70.17 70.08 70.00 67.82 70.93 71.36 71.19 68.52
MSLP
1017.78 1017.84 1017.93 1017.80 1018.43 1018.98 1019.51 1020.61 1020.42 1021.19 1021.60 1021.57 1021.54 1021.66 1021.55 1021.39 1021.83 1021.99 1022.30 1022.28 1022.05 1022.22 1022.38 1022.50 1022.73 1023.00 1023.27 1023.47 1023.58 1023.79 1023.96 1024.13 1024.37 1024.57 1024.79 1025.05 1025.21 1025.33 1025.53 1025.68 1025.76 1025.85 1025.96
1017.38 1017.55 1017.54 1017.53 1018.19 1018.54 1019.47 1020.07 1020.88 1021.09 1021.42 1021.21 1021.28 1021.48 1021.79 1021.67 1022.22 1022.57 1022.72 1022.90 1022.64 1022.50 1022.39 1022.50 1022.72 1022.98 1023.23 1023.51 1023.66 1024.10 1024.13 1024.27 1024.47 1024.66 1024.88 1025.19 1025.46 1025.63 1025.75 1025.94 1026.10 1026.21 1026.31
1016.79 1017.05 1017.26 1017.75 1017.87 1018.22 1019.00 1019.81 1020.55 1020.93 1021.19 1021.22 1021.47 1021.70 1021.75 1021.91 1021.75 1022.83 1022.60 1022.84 1023.02 1022.87 1022.44 1022.50 1022.71 1022.99 1023.27 1023.42 1023.72 1024.03 1024.18 1024.41 1024.58 1024.78 1025.01 1025.25 1025.56 1025.81 1025.95 1026.11 1026.32 1026.50 1026.61
1017.12 1017.27 1017.43 1017.35 1017.73 1018.29 1018.74 1019.50 1020.21 1020.76 1021.21 1021.35 1021.57 1021.85 1021.71 1022.06 1021.97 1022.38 1022.58 1022.81 1022.94 1022.77 1022.51 1022.72 1022.94 1022.93 1023.14 1023.45 1023.60 1023.88 1024.14 1024.47 1024.66 1024.87 1025.13 1025.37 1025.58 1025.87 1026.04 1026.25 1026.45 1026.64 1026.84
1017.25 1017.49 1017.51 1017.43 1017.48 1017.90 1018.68 1019.27 1019.85 1020.49 1021.27 1021.77 1022.02 1022.01 1021.92 1022.03 1022.03 1021.94 1022.05 1022.33 1022.55 1022.08 1022.23 1022.47 1023.01 1023.12 1022.93 1023.12 1023.47 1023.72 1024.05 1024.38 1024.63 1024.86 1025.14 1025.36 1025.60 1025.84 1026.04 1026.23 1026.47 1026.68 1026.89
1016.92 1017.32 1017.59 1017.66 1017.60 1018.13 1018.82 1019.75 1020.59 1020.92 1021.06 1021.44 1021.93 1022.13 1022.02 1021.87 1021.76 1021.62 1021.57 1021.56 1022.09 1022.24 1022.51 1022.35 1023.01 1023.16 1022.89 1022.90 1023.28 1023.54 1023.87 1024.22 1024.52 1024.74 1025.03 1025.32 1025.54 1025.78 1026.02 1026.22 1026.39 1026.65 1026.85
1016.46 1016.94 1017.45 1017.59 1017.67 1018.16 1018.56 1019.43 1019.97 1020.82 1020.97 1021.30 1021.79 1021.83 1021.84 1021.72 1021.81 1021.40 1021.32 1021.48 1021.97 1022.31 1022.67 1023.03 1022.61 1022.73 1022.56 1022.64 1022.88 1023.26 1023.53 1023.99 1024.25 1024.61 1024.82 1025.11 1025.42 1025.63 1025.94 1026.17 1026.35 1026.57 1026.77
1016.23 1016.58 1017.14 1017.58 1017.50 1017.71 1018.29 1018.84 1019.30 1019.77 1020.26 1020.71 1021.08 1021.41 1021.46 1021.49 1021.40 1021.30 1021.27 1021.56 1021.68 1021.88 1022.11 1022.46 1022.54 1022.20 1022.42 1022.35 1022.45 1022.77 1023.09 1023.55 1023.92 1024.24 1024.52 1024.83 1025.16 1025.45 1025.70 1026.00 1026.24 1026.45 1026.65
1016.01 1016.37 1016.60 1017.09 1017.29 1017.48 1017.85 1018.15 1018.48 1018.97 1019.42 1019.98 1020.26 1020.35 1020.52 1020.57 1020.85 1021.09 1021.17 1020.95 1021.38 1021.98 1021.86 1021.80 1021.77 1021.98 1022.40 1021.71 1021.94 1022.31 1022.50 1023.01 1023.45 1023.82 1024.12 1024.49 1024.84 1025.16 1025.41 1025.69 1025.98 1026.20 1026.42
1015.52 1015.91 1016.29 1016.52 1016.93 1016.90 1017.43 1017.64 1017.71 1017.93 1018.56 1018.85 1019.92 1019.84 1019.52 1019.71 1020.05 1020.72 1021.07 1021.12 1021.25 1021.39 1021.90 1021.77 1021.57 1021.26 1021.04 1021.53 1021.82 1021.68 1021.98 1022.42 1023.00 1023.32 1023.63 1023.97 1024.41 1024.75 1025.08 1025.33 1025.61 1025.88 1026.04
1014.95 1015.26 1015.63 1016.09 1016.51 1016.81 1016.84 1017.06 1017.18 1017.63 1018.11 1018.08 1018.61 1018.71 1018.82 1019.01 1019.24 1019.80 1020.31 1020.62 1021.04 1021.13 1021.15 1021.46 1021.33 1021.20 1020.98 1020.86 1021.07 1021.10 1021.40 1021.97 1022.50 1022.71 1023.06 1023.50 1023.91 1024.28 1024.61 1024.88 1025.15 1025.42 1025.56
1014.62 1014.71 1014.97 1015.33 1015.74 1016.18 1016.11 1016.39 1016.85 1016.96 1017.32 1017.78 1018.03 1018.25 1018.46 1018.57 1018.78 1019.14 1019.70 1019.94 1020.31 1020.65 1019.82 1020.63 1020.87 1020.74 1020.70 1020.88 1020.72 1020.92 1021.08 1021.22 1021.66 1022.03 1022.47 1022.96 1023.36 1023.76 1024.04 1024.28 1024.55 1024.84 1025.16
1013.66 1014.00 1014.19 1014.54 1015.01 1015.33 1015.64 1015.89 1016.43 1016.71 1017.02 1017.34 1017.47 1017.76 1017.91 1018.06 1018.25 1018.64 1019.11 1019.53 1019.82 1020.14 1020.09 1019.91 1019.87 1020.17 1020.26 1020.42 1020.26 1020.15 1020.22 1020.73 1020.92 1021.27 1021.76 1022.24 1022.73 1023.13 1023.45 1023.73 1023.96 1024.20 1024.47
1012.73 1012.75 1013.37 1013.86 1014.18 1014.57 1015.07 1015.27 1015.94 1016.33 1016.54 1016.82 1016.98 1017.25 1017.37 1017.51 1017.76 1018.07 1018.39 1018.92 1019.24 1019.31 1019.44 1019.25 1019.15 1019.21 1019.43 1019.47 1019.58 1019.69 1019.94 1020.05 1020.34 1020.55 1020.99 1021.54 1021.92 1022.33 1022.74 1023.10 1023.37 1023.56 1023.77
1012.23 1012.36 1012.92 1013.40 1013.82 1014.19 1014.54 1014.89 1015.36 1015.72 1015.91 1016.15 1016.31 1016.59 1016.91 1017.14 1017.16 1017.44 1017.72 1018.12 1018.48 1018.78 1018.85 1018.63 1018.71 1018.33 1018.36 1018.66 1018.62 1018.91 1019.05 1019.18 1019.62 1019.96 1020.36 1020.73 1021.14 1021.58 1021.95 1022.34 1022.70 1022.96 1023.22
1012.02 1012.14 1012.64 1012.97 1013.29 1013.72 1014.05 1014.50 1014.81 1015.01 1015.29 1015.56 1015.82 1016.17 1016.43 1016.84 1016.92 1016.91 1017.20 1017.57 1017.77 1018.13 1018.22 1017.68 1017.79 1017.67 1017.73 1017.69 1017.84 1018.15 1018.40 1018.62 1018.91 1019.19 1019.36 1019.96 1020.29 1020.63 1021.05 1021.46 1021.87 1022.23 1022.57
1011.56 1011.85 1012.21 1012.60 1012.82 1013.22 1013.68 1014.05 1014.33 1014.62 1014.86 1015.18 1015.47 1015.66 1016.08 1016.30 1016.49 1016.53 1016.64 1016.80 1017.24 1017.60 1017.60 1017.24 1017.28 1017.29 1017.43 1017.39 1017.21 1017.62 1017.78 1018.03 1018.05 1018.53 1018.93 1019.43 1019.63 1019.86 1020.15 1020.47 1020.94 1021.29 1021.64
1011.04 1011.35 1011.70 1012.18 1012.56 1012.85 1013.21 1013.66 1013.96 1014.20 1014.52 1014.72 1014.98 1015.24 1015.52 1015.76 1015.95 1016.18 1016.30 1016.46 1016.61 1016.70 1017.17 1017.06 1016.89 1016.88 1016.98 1017.00 1016.82 1017.38 1017.16 1017.32 1017.31 1017.40 1017.94 1018.47 1018.84 1019.08 1019.31 1019.63 1020.00 1020.35 1020.68
1010.55 1010.85 1011.21 1011.61 1012.18 1012.51 1012.79 1013.08 1013.41 1013.69 1014.04 1014.34 1014.55 1014.82 1015.00 1015.10 1015.29 1015.62 1015.98 1016.09 1016.02 1016.10 1016.48 1016.68 1016.50 1016.19 1016.13 1016.27 1016.83 1016.96 1016.72 1016.73 1016.74 1016.73 1017.09 1017.47 1017.96 1018.23 1018.52 1018.71 1018.93 1019.33 1019.67
1009.88 1010.34 1010.64 1011.05 1011.53 1011.95 1012.33 1012.64 1012.95 1013.30 1013.63 1013.90 1014.12 1014.43 1014.56 1014.66 1014.80 1014.98 1015.25 1015.41 1015.36 1015.61 1015.86 1016.02 1015.99 1015.84 1015.71 1015.70 1016.03 1016.20 1016.27 1016.25 1016.21 1015.95 1016.02 1016.39 1016.82 1017.24 1017.56 1017.77 1018.02 1018.30 1018.55
1009.18 1009.69 1010.11 1010.38 1010.86 1011.31 1011.70 1012.10 1012.46 1012.83 1013.22 1013.58 1013.79 1013.96 1014.01 1014.17 1014.47 1014.56 1014.65 1014.71 1014.84 1015.16 1015.38 1015.42 1015.45 1015.34 1015.35 1015.51 1015.71 1015.73 1015.74 1015.62 1015.48 1015.67 1015.78 1015.66 1015.93 1016.37 1016.57 1017.07 1017.16 1017.42 1017.63
1008.53 1009.16 1009.55 1009.90 1010.31 1010.71 1011.12 1011.60 1012.00 1012.36 1012.75 1013.05 1013.44 1013.66 1013.71 1013.90 1014.17 1014.39 1014.53 1014.66 1014.87 1014.99 1015.15 1015.24 1015.31 1015.32 1015.15 1015.18 1015.26 1015.36 1015.53 1015.61 1015.40 1014.56 1014.93 1015.02 1015.08 1015.40 1015.40 1015.55 1015.58 1015.92 1016.31
1008.09 1008.64 1009.21 1009.55 1009.93 1010.30 1010.63 1011.07 1011.55 1011.82 1012.09 1012.43 1012.81 1013.10 1013.26 1013.33 1013.69 1013.99 1014.22 1014.31 1014.48 1014.58 1014.71 1014.81 1015.00 1014.90 1014.84 1014.79 1014.79 1014.87 1014.99 1015.09 1014.88 1014.50 1014.59 1014.47 1014.40 1014.64 1014.52 1014.50 1014.49 1014.70 1015.08
1007.75 1008.24 1008.82 1009.31 1009.81 1010.02 1010.39 1010.75 1011.41 1011.71 1011.76 1011.95 1012.19 1012.52 1012.76 1012.80 1012.91 1013.35 1013.49 1013.83 1014.04 1013.98 1013.94 1014.11 1014.13 1014.05 1014.14 1014.22 1014.39 1014.53 1014.63 1014.54 1014.38 1014.18 1014.31 1014.26 1014.03 1014.07 1013.92 1013.75 1013.70 1013.82 1014.14
1007.47 1007.87 1008.42 1009.03 1009.47 1009.96 1010.38 1010.57 1011.15 1011.53 1011.55 1011.61 1011.71 1011.89 1012.11 1012.31 1012.48 1012.68 1012.95 1013.08 1013.12 1012.94 1012.52 1012.89 1013.02 1013.36 1013.72 1013.96 1014.01 1014.28 1014.29 1014.34 1014.07 1013.70 1013.55 1013.91 1013.50 1013.56 1013.47 1013.18 1012.96 1013.05 1013.37
1007.18 1007.57 1008.18 1008.65 1009.26 1009.73 1010.54 1010.87 1011.11 1011.13 1010.99 1010.98 1010.98 1011.20 1011.49 1011.73 1012.11 1012.30 1012.57 1012.62 1012.73 1012.67 1012.66 1012.94 1013.38 1013.39 1013.18 1013.15 1013.55 1013.52 1013.50 1013.71 1013.57 1013.40 1013.17 1013.61 1013.24 1013.42 1013.09 1012.56 1012.51 1012.45 1012.87
Wind_Speed
4 5 5 6 6 5 5 7 5 2 9 6 4 5 4 5 7 5 2 6 11 11 11 10 11 10 11 11 12 11 11 12 12 12 12 11 11 11 11 12 12 13 13
1 5 2 4 6 3 7 7 9 5 4 6 5 5 3 4 7 6 6 6 8 11 11 11 11 10 11 10 11 10 9 11 11 12 12 11 9 10 11 11 11 11 12
2 3 2 3 4 4 6 8 7 6 4 4 4 3 3 5 3 4 6 4 4 10 11 11 10 10 10 11 11 12 11 10 12 12 12 12 10 9 10 10 10 10 10
2 3 1 2 5 4 7 8 5 5 4 2 1 1 2 4 5 2 1 2 3 5 8 10 10 11 11 12 12 12 12 10 11 12 12 12 11 10 9 8 9 9 8
6 4 3 2 4 3 7 7 5 5 4 1 2 2 2 4 4 3 5 3 3 4 3 10 11 11 13 13 13 13 13 12 11 11 13 12 11 10 9 9 8 8 8
10 7 4 4 4 3 5 5 5 3 4 6 4 4 3 5 4 5 5 5 3 6 4 5 6 7 11 13 13 13 14 14 13 13 12 12 12 11 10 9 9 8 7
8 6 5 5 5 7 7 10 8 8 5 5 3 4 5 7 7 6 5 5 6 5 3 8 4 3 7 14 14 14 15 16 16 15 13 13 13 13 11 10 9 9 8
5 6 6 6 7 5 8 8 8 7 4 8 3 2 2 2 6 6 3 5 7 4 5 4 7 6 7 8 12 17 16 16 17 17 16 14 14 14 13 12 11 10 10
7 7 6 6 7 5 6 7 9 8 7 5 7 3 3 3 2 2 6 5 6 4 5 7 6 9 15 7 10 14 17 16 18 18 17 16 15 15 15 14 13 12 11
10 9 7 8 6 5 6 7 7 7 6 7 6 8 8 3 4 3 3 6 6 7 7 6 7 5 5 4 11 13 18 17 18 19 18 18 17 16 16 16 15 14 14
12 11 9 9 7 6 8 7 6 6 10 3 4 3 7 6 6 3 2 4 5 4 5 7 6 5 6 6 7 7 16 21 22 20 20 19 19 19 20 19 17 17 17
10 11 11 10 9 8 9 4 6 6 5 5 6 5 4 3 3 4 2 3 6 4 7 7 8 7 7 5 8 9 9 21 22 21 20 19 19 20 21 21 21 20 19
9 13 14 10 9 9 8 6 6 5 6 5 7 6 4 4 3 2 3 3 3 2 5 7 7 8 8 7 8 11 20 20 23 22 21 21 20 20 21 20 20 21 21
6 8 14 11 9 7 8 7 5 6 6 6 7 6 5 5 4 5 4 4 3 4 3 4 7 8 8 9 11 15 11 18 20 22 22 21 21 20 20 21 21 21 21
7 5 11 11 10 9 7 6 5 6 6 6 6 6 5 4 2 2 4 5 5 4 7 7 5 10 8 8 12 11 10 10 19 21 21 21 21 21 21 20 20 19 19
6 5 9 12 11 8 7 7 7 6 7 5 5 6 6 3 6 4 3 5 4 5 3 5 5 4 8 8 10 11 10 6 19 21 22 22 23 24 23 21 21 20 19
8 8 6 6 6 7 6 6 7 6 6 7 7 6 9 8 6 4 3 4 4 6 6 3 4 6 7 8 8 9 9 9 6 18 21 21 22 23 24 24 22 22 21
10 8 8 8 7 7 8 8 9 8 8 8 8 7 8 6 8 5 3 5 4 5 4 6 4 5 6 8 5 8 8 8 9 14 21 24 23 23 24 24 23 21 21
11 11 10 9 9 9 8 7 7 6 6 6 5 5 6 7 6 5 5 5 6 5 5 4 4 3 5 3 7 9 7 8 7 12 15 21 23 22 23 23 23 22 20
11 11 9 10 10 9 9 8 6 7 7 5 5 6 7 6 5 6 6 7 4 4 4 4 5 4 4 3 4 4 5 6 6 6 8 13 18 23 23 23 23 23 22
11 10 10 8 10 9 8 9 8 6 6 6 6 6 6 6 6 4 4 4 6 4 5 5 4 2 2 2 3 3 5 5 5 7 7 6 6 7 10 15 18 23 23
8 10 10 9 9 8 9 12 9 6 7 7 7 7 8 8 8 8 8 6 3 1 3 2 3 3 3 2 3 3 4 3 4 5 7 9 7 7 9 9 18 24 23
8 9 10 9 9 8 9 16 14 8 7 8 7 5 6 8 11 8 10 11 7 8 9 4 5 5 5 4 3 4 4 4 5 5 2 6 5 8 8 9 13 16 20
10 9 8 8 8 7 10 13 12 7 5 7 7 8 7 6 6 10 8 9 8 9 9 8 10 8 7 5 2 1 4 4 4 4 4 5 4 7 5 6 11 13 13
9 8 7 8 9 7 12 14 11 7 7 7 8 6 7 7 8 9 9 6 8 8 8 17 12 8 7 6 5 1 4 4 3 3 4 3 3 4 4 6 6 10 11
9 7 8 8 6 4 8 11 10 6 8 7 6 8 13 9 8 6 6 6 5 6 6 1 6 5 8 9 11 8 5 6 4 2 3 3 2 2 4 2 3 4 5
Wind_Direction
148 156 175 179 146 224 150 108 42 158 144 145 88 79 34 12 43 29 2 148 147 155 163 162 163 170 165 169 166 162 154 140 142 134 129 126 114 116 114 113 110 107 105
179 165 199 169 147 164 132 135 166 104 94 99 78 76 44 347 98 52 27 320 188 169 165 176 175 177 178 177 170 167 162 151 151 143 138 135 134 131 130 124 118 114 111
291 66 358 123 158 162 132 116 114 114 109 94 75 18 356 338 4 101 139 297 234 200 177 174 182 180 189 186 187 175 167 171 159 154 148 148 150 147 139 134 128 123 119
151 86 302 257 145 153 146 125 136 111 99 101 135 286 317 330 315 61 302 223 278 233 192 191 192 188 193 196 196 183 177 179 164 163 161 162 161 160 154 146 139 133 127
168 181 207 266 205 134 128 143 137 135 118 48 227 244 260 268 279 293 275 274 322 283 236 197 208 193 191 196 199 191 183 185 180 173 173 171 172 171 168 161 155 149 143
176 175 204 224 208 114 134 118 110 175 160 184 215 224 231 252 256 256 263 275 285 285 115 274 202 209 199 195 197 198 192 190 188 183 183 181 180 179 179 177 170 167 163
175 182 184 166 228 143 164 147 164 187 177 177 173 221 232 223 229 244 219 229 253 270 203 209 178 266 193 206 198 198 195 199 192 192 190 190 189 185 186 188 185 182 181
190 187 207 182 215 199 166 176 183 181 181 179 164 181 233 176 219 234 202 219 226 244 252 205 194 245 254 199 203 197 195 200 201 199 196 197 195 193 190 193 195 197 196
200 204 196 224 202 227 190 184 200 188 180 174 201 189 212 184 173 164 216 207 208 202 238 252 241 202 228 184 193 201 195 197 203 203 201 199 202 201 197 196 201 203 205
192 201 206 216 211 239 233 194 209 202 178 175 187 228 249 184 193 145 199 215 210 207 218 234 260 275 205 197 217 208 199 197 207 203 206 201 203 204 204 202 204 208 211
194 206 201 208 220 226 248 216 227 186 220 169 203 196 226 234 235 211 170 187 201 201 216 228 234 260 263 242 204 237 196 200 203 206 205 208 204 208 210 211 208 211 216
192 206 212 199 207 217 239 242 244 199 196 218 235 222 212 203 253 201 200 182 192 184 213 225 223 236 248 251 270 214 240 203 203 202 203 207 208 209 215 216 217 219 223
195 203 208 203 202 211 219 212 225 217 211 206 217 220 229 220 201 188 158 191 191 169 207 226 224 225 233 227 239 213 232 240 200 199 200 203 206 210 214 218 220 223 225
207 204 195 196 206 197 206 212 216 207 199 213 218 215 217 217 194 189 180 189 205 200 186 192 216 218 223 228 228 233 243 201 203 199 199 202 201 205 213 217 220 222 225
231 159 178 191 194 200 203 211 212 218 208 215 221 216 200 238 235 255 202 197 187 203 218 210 206 211 213 219 225 228 239 205 206 202 204 202 202 206 211 214 217 222 224
241 272 191 192 190 189 195 203 227 228 194 223 212 205 208 236 257 218 216 213 208 214 244 205 203 182 204 223 226 223 234 226 210 211 202 207 206 206 210 214 215 219 221
207 216 201 218 198 192 201 211 228 240 207 220 224 194 203 209 234 234 234 205 207 211 234 260 219 210 201 207 230 220 226 237 213 211 214 217 213 210 212 215 216 217 219
226 214 196 205 207 212 213 214 222 225 218 226 225 208 215 220 225 221 225 208 202 212 209 262 246 216 215 204 202 241 222 220 225 221 212 212 218 213 212 215 217 217 218
213 222 209 202 207 218 223 215 217 224 234 230 229 220 226 227 210 199 203 207 214 206 196 212 256 253 208 192 204 224 220 230 231 226 209 211 219 219 218 216 216 215 215
205 209 224 202 207 213 217 214 209 220 223 215 202 220 231 222 221 198 210 214 221 195 193 209 233 249 229 205 202 215 228 215 232 237 240 209 214 221 223 219 218 218 217
198 200 211 221 198 206 218 210 206 203 193 197 222 232 233 202 213 247 218 233 198 181 239 226 242 248 200 192 200 234 250 256 233 219 231 239 208 215 226 232 235 230 228
195 196 207 212 207 208 196 186 197 190 205 209 214 225 237 199 215 213 228 229 277 277 282 306 304 299 307 235 238 222 240 257 270 210 216 233 194 210 215 211 214 224 221
201 191 204 208 204 202 166 191 193 197 197 202 215 230 227 215 202 207 224 235 236 208 215 235 243 244 268 279 288 275 241 224 243 270 289 258 226 227 219 226 221 206 221
200 199 195 205 204 204 161 171 184 214 206 213 206 201 226 268 207 203 214 200 215 224 219 219 222 234 232 236 206 274 277 268 261 244 202 259 222 241 243 239 226 220 201
197 193 192 202 206 203 173 168 170 204 231 234 208 217 205 219 240 216 220 223 210 233 238 210 204 201 180 191 212 223 248 251 261 247 177 228 221 241 229 245 226 218 213
189 193 185 193 193 190 183 177 182 213 212 219 216 208 215 222 157 212 224 215 250 264 285 360 223 254 229 226 205 214 223 234 226 252 215 197 250 186 278 232 250 214 199